Time,TemperatureF,DewpointF,PressureIn,WindDirection,WindDirectionDegrees,WindSpeedMPH,WindSpeedGustMPH,Humidity,HourlyPrecipIn,Conditions,Clouds,dailyrainin,SoftwareType,DateUTC
2013-01-06 00:09:00,19.4,7.0,30.43,NE,43,0.0,-999.0,59,-99.99,,,0.00,weatherlink.com 1.10,2013-01-06 07:09:00,
2013-01-06 00:24:00,19.0,6.0,30.43,NE,42,1.0,-999.0,58,-99.99,,,0.00,weatherlink.com 1.10,2013-01-06 07:24:00,
2013-01-06 00:39:00,20.1,5.0,30.42,NE,50,1.0,-999.0,51,-99.99,,,0.00,weatherlink.com 1.10,2013-01-06 07:39:00,
2013-01-06 00:54:00,23.3,4.0,30.41,NE,50,1.0,-999.0,44,-99.99,,,0.00,weatherlink.com 1.10,2013-01-06 07:54:00,
2013-01-06 01:09:00,25.3,3.0,30.41,NE,50,1.0,-999.0,39,-99.99,,,0.00,weatherlink.com 1.10,2013-01-06 08:09:00,
2013-01-06 01:24:00,23.6,4.0,30.40,NE,50,0.0,-999.0,43,-99.99,,,0.00,weatherlink.com 1.10,2013-01-06 08:24:00,
2013-01-06 01:39:00,25.1,3.0,30.40,NE,47,1.0,-999.0,39,-99.99,,,0.00,weatherlink.com 1.10,2013-01-06 08:39:00,
2013-01-06 01:54:00,26.4,3.0,30.40,NE,47,1.0,-999.0,36,-99.99,,,0.00,weatherlink.com 1.10,2013-01-06 08:54:00,
2013-01-06 02:09:00,26.1,4.0,30.39,NE,47,0.0,-999.0,39,-99.99,,,0.00,weatherlink.com 1.10,2013-01-06 09:09:00,
2013-01-06 02:24:00,24.6,6.0,30.39,NE,47,0.0,-999.0,45,-99.99,,,0.00,weatherlink.com 1.10,2013-01-06 09:24:00,
2013-01-06 02:39:00,22.9,7.0,30.38,NE,47,0.0,-999.0,51,-99.99,,,0.00,weatherlink.com 1.10,2013-01-06 09:39:00,
2013-01-06 02:54:00,22.3,7.0,30.38,NE,47,0.0,-999.0,52,-99.99,,,0.00,weatherlink.com 1.10,2013-01-06 09:54:00,
2013-01-06 03:09:00,21.3,8.0,30.36,NE,47,0.0,-999.0,57,-99.99,,,0.00,weatherlink.com 1.10,2013-01-06 10:09:00,
2013-01-06 03:24:00,19.5,8.0,30.37,NE,47,0.0,-999.0,62,-99.99,,,0.00,weatherlink.com 1.10,2013-01-06 10:24:00,
2013-01-06 03:39:00,19.8,7.0,30.35,NE,50,1.0,-999.0,59,-99.99,,,0.00,weatherlink.com 1.10,2013-01-06 10:39:00,
2013-01-06 03:54:00,21.0,7.0,30.34,ENE,58,1.0,-999.0,55,-99.99,,,0.00,weatherlink.com 1.10,2013-01-06 10:54:00,
2013-01-06 04:09:00,21.4,7.0,30.34,ENE,66,0.0,-999.0,55,-99.99,,,0.00,weatherlink.com 1.10,2013-01-06 11:09:00,
2013-01-06 04:24:00,20.2,6.0,30.33,ENE,62,0.0,-999.0,54,-99.99,,,0.00,weatherlink.com 1.10,2013-01-06 11:24:00,
2013-01-06 04:39:00,21.2,6.0,30.32,NE,50,2.0,-999.0,52,-99.99,,,0.00,weatherlink.com 1.10,2013-01-06 11:39:00,
2013-01-06 04:54:00,19.9,6.0,30.32,NE,51,0.0,-999.0,55,-99.99,,,0.00,weatherlink.com 1.10,2013-01-06 11:54:00,
2013-01-06 05:09:00,20.8,5.0,30.31,NE,53,2.0,-999.0,51,-99.99,,,0.00,weatherlink.com 1.10,2013-01-06 12:09:00,
2013-01-06 05:24:00,21.6,5.0,30.31,NE,54,0.0,-999.0,50,-99.99,,,0.00,weatherlink.com 1.10,2013-01-06 12:24:00,
2013-01-06 05:39:00,18.1,7.0,30.30,NE,54,0.0,-999.0,61,-99.99,,,0.00,weatherlink.com 1.10,2013-01-06 12:39:00,
2013-01-06 05:54:00,16.9,7.0,30.30,ESE,114,0.0,-999.0,64,-99.99,,,0.00,weatherlink.com 1.10,2013-01-06 12:54:00,
2013-01-06 06:09:00,16.3,7.0,30.30,ESE,114,0.0,-999.0,66,-99.99,,,0.00,weatherlink.com 1.10,2013-01-06 13:09:00,
2013-01-06 06:24:00,15.8,7.0,30.30,ESE,113,0.0,-999.0,67,-99.99,,,0.00,weatherlink.com 1.10,2013-01-06 13:24:00,
2013-01-06 06:39:00,15.5,7.0,30.30,ESE,113,1.0,-999.0,68,-99.99,,,0.00,weatherlink.com 1.10,2013-01-06 13:39:00,
2013-01-06 06:54:00,15.6,6.0,30.30,ENE,75,0.0,-999.0,66,-99.99,,,0.00,weatherlink.com 1.10,2013-01-06 13:54:00,
2013-01-06 07:09:00,15.5,6.0,30.30,ENE,69,0.0,-999.0,65,-99.99,,,0.00,weatherlink.com 1.10,2013-01-06 14:09:00,
2013-01-06 07:24:00,15.6,6.0,30.30,ENE,69,0.0,-999.0,66,-99.99,,,0.00,weatherlink.com 1.10,2013-01-06 14:24:00,
2013-01-06 07:40:00,15.0,5.0,30.30,ENE,69,1.0,-999.0,66,-99.99,,,0.00,weatherlink.com 1.10,2013-01-06 14:40:00,
2013-01-06 07:55:00,15.4,7.0,30.30,ENE,68,0.0,-999.0,68,-99.99,,,0.00,weatherlink.com 1.10,2013-01-06 14:55:00,
2013-01-06 08:10:00,15.2,6.0,30.29,ENE,68,0.0,-999.0,68,-99.99,,,0.00,weatherlink.com 1.10,2013-01-06 15:10:00,
2013-01-06 08:25:00,17.2,8.0,30.29,ENE,62,1.0,-999.0,66,-99.99,,,0.00,weatherlink.com 1.10,2013-01-06 15:25:00,
2013-01-06 08:40:00,19.4,9.0,30.29,NE,39,0.0,-999.0,65,-99.99,,,0.00,weatherlink.com 1.10,2013-01-06 15:40:00,
2013-01-06 08:55:00,21.0,10.0,30.29,NNE,17,0.0,-999.0,63,-99.99,,,0.00,weatherlink.com 1.10,2013-01-06 15:55:00,
2013-01-06 09:10:00,23.5,11.0,30.28,NNE,17,0.0,-999.0,59,-99.99,,,0.00,weatherlink.com 1.10,2013-01-06 16:10:00,
2013-01-06 09:25:00,26.8,13.0,30.28,NNE,17,0.0,-999.0,57,-99.99,,,0.00,weatherlink.com 1.10,2013-01-06 16:25:00,
2013-01-06 09:40:00,32.0,11.0,30.27,SE,144,0.0,-999.0,42,-99.99,,,0.00,weatherlink.com 1.10,2013-01-06 16:40:00,
2013-01-06 09:55:00,38.0,10.0,30.27,SSW,199,0.0,-999.0,32,-99.99,,,0.00,weatherlink.com 1.10,2013-01-06 16:55:00,
2013-01-06 10:10:00,41.6,11.0,30.27,SW,218,0.0,-999.0,28,-99.99,,,0.00,weatherlink.com 1.10,2013-01-06 17:10:00,
2013-01-06 10:25:00,43.7,10.0,30.26,SW,214,2.0,-999.0,25,-99.99,,,0.00,weatherlink.com 1.10,2013-01-06 17:25:00,
2013-01-06 10:40:00,44.5,10.0,30.26,SW,218,2.0,-999.0,24,-99.99,,,0.00,weatherlink.com 1.10,2013-01-06 17:40:00,
2013-01-06 10:55:00,45.5,10.0,30.25,SSE,156,0.0,-999.0,23,-99.99,,,0.00,weatherlink.com 1.10,2013-01-06 17:55:00,
2013-01-06 11:10:00,45.7,11.0,30.24,SSW,213,0.0,-999.0,24,-99.99,,,0.00,weatherlink.com 1.10,2013-01-06 18:10:00,
2013-01-06 11:25:00,45.9,9.0,30.22,SSE,159,3.0,-999.0,22,-99.99,,,0.00,weatherlink.com 1.10,2013-01-06 18:25:00,
2013-01-06 11:40:00,45.6,9.0,30.21,SE,131,1.0,-999.0,22,-99.99,,,0.00,weatherlink.com 1.10,2013-01-06 18:40:00,
2013-01-06 11:55:00,46.7,10.0,30.20,SSE,164,1.0,-999.0,22,-99.99,,,0.00,weatherlink.com 1.10,2013-01-06 18:55:00,
2013-01-06 12:10:00,45.8,10.0,30.18,South,172,2.0,-999.0,23,-99.99,,,0.00,weatherlink.com 1.10,2013-01-06 19:10:00,
2013-01-06 12:25:00,46.8,11.0,30.16,SSE,167,2.0,-999.0,23,-99.99,,,0.00,weatherlink.com 1.10,2013-01-06 19:25:00,
2013-01-06 12:40:00,46.4,11.0,30.16,West,276,0.0,-999.0,24,-99.99,,,0.00,weatherlink.com 1.10,2013-01-06 19:40:00,
2013-01-06 13:11:00,44.5,13.0,30.12,West,280,1.0,-999.0,28,-99.99,,,0.00,weatherlink.com 1.10,2013-01-06 20:11:00,
2013-01-06 13:25:00,43.4,13.0,30.13,WSW,241,0.0,-999.0,29,-99.99,,,0.00,weatherlink.com 1.10,2013-01-06 20:25:00,
2013-01-06 13:40:00,44.1,13.0,30.13,West,271,5.0,-999.0,28,-99.99,,,0.00,weatherlink.com 1.10,2013-01-06 20:40:00,
2013-01-06 13:55:00,44.1,13.0,30.12,SSE,155,1.0,-999.0,28,-99.99,,,0.00,weatherlink.com 1.10,2013-01-06 20:55:00,
2013-01-06 14:10:00,44.9,13.0,30.12,SW,234,3.0,-999.0,27,-99.99,,,0.00,weatherlink.com 1.10,2013-01-06 21:10:00,
2013-01-06 14:25:00,45.6,12.0,30.12,WNW,282,2.0,-999.0,25,-99.99,,,0.00,weatherlink.com 1.10,2013-01-06 21:25:00,
2013-01-06 14:40:00,46.0,14.0,30.11,NNW,336,6.0,-999.0,28,-99.99,,,0.00,weatherlink.com 1.10,2013-01-06 21:40:00,
2013-01-06 14:56:00,45.2,15.0,30.11,WSW,240,2.0,-999.0,29,-99.99,,,0.00,weatherlink.com 1.10,2013-01-06 21:56:00,
2013-01-06 15:11:00,45.6,13.0,30.11,SSE,152,4.0,-999.0,27,-99.99,,,0.00,weatherlink.com 1.10,2013-01-06 22:11:00,
2013-01-06 15:26:00,45.3,13.0,30.10,SSW,210,1.0,-999.0,27,-99.99,,,0.00,weatherlink.com 1.10,2013-01-06 22:26:00,
2013-01-06 15:41:00,45.3,13.0,30.11,SW,221,0.0,-999.0,27,-99.99,,,0.00,weatherlink.com 1.10,2013-01-06 22:41:00,
2013-01-06 15:56:00,44.8,13.0,30.10,SSW,199,1.0,-999.0,28,-99.99,,,0.00,weatherlink.com 1.10,2013-01-06 22:56:00,
2013-01-06 16:11:00,43.2,13.0,30.10,SSE,168,1.0,-999.0,29,-99.99,,,0.00,weatherlink.com 1.10,2013-01-06 23:11:00,
2013-01-06 16:26:00,41.8,14.0,30.10,SSW,200,2.0,-999.0,32,-99.99,,,0.00,weatherlink.com 1.10,2013-01-06 23:26:00,
2013-01-06 16:41:00,41.5,14.0,30.09,South,180,1.0,-999.0,32,-99.99,,,0.00,weatherlink.com 1.10,2013-01-06 23:41:00,
2013-01-06 16:56:00,40.6,11.0,30.08,SSW,207,1.0,-999.0,30,-99.99,,,0.00,weatherlink.com 1.10,2013-01-06 23:56:00,
2013-01-06 17:12:00,39.6,10.0,30.07,West,260,1.0,-999.0,30,-99.99,,,0.00,weatherlink.com 1.10,2013-01-07 00:12:00,
2013-01-06 17:26:00,38.6,11.0,30.07,SE,135,0.0,-999.0,32,-99.99,,,0.00,weatherlink.com 1.10,2013-01-07 00:26:00,
2013-01-06 17:41:00,37.2,10.0,30.07,SSE,162,0.0,-999.0,32,-99.99,,,0.00,weatherlink.com 1.10,2013-01-07 00:41:00,
2013-01-06 17:56:00,35.1,10.0,30.07,South,176,0.0,-999.0,36,-99.99,,,0.00,weatherlink.com 1.10,2013-01-07 00:56:00,
2013-01-06 18:11:00,33.0,12.0,30.07,SSW,199,0.0,-999.0,41,-99.99,,,0.00,weatherlink.com 1.10,2013-01-07 01:11:00,
2013-01-06 18:26:00,30.4,14.0,30.08,SSE,147,0.0,-999.0,51,-99.99,,,0.00,weatherlink.com 1.10,2013-01-07 01:26:00,
2013-01-06 18:41:00,29.1,14.0,30.08,SE,137,0.0,-999.0,53,-99.99,,,0.00,weatherlink.com 1.10,2013-01-07 01:41:00,
2013-01-06 18:56:00,28.3,12.0,30.07,SE,137,0.0,-999.0,51,-99.99,,,0.00,weatherlink.com 1.10,2013-01-07 01:56:00,
2013-01-06 19:11:00,27.8,12.0,30.07,SE,137,0.0,-999.0,52,-99.99,,,0.00,weatherlink.com 1.10,2013-01-07 02:11:00,
2013-01-06 19:26:00,27.1,13.0,30.07,SE,137,0.0,-999.0,56,-99.99,,,0.00,weatherlink.com 1.10,2013-01-07 02:26:00,
2013-01-06 19:41:00,26.3,13.0,30.06,SE,137,0.0,-999.0,57,-99.99,,,0.00,weatherlink.com 1.10,2013-01-07 02:41:00,
2013-01-06 19:56:00,25.9,12.0,30.06,SE,137,0.0,-999.0,56,-99.99,,,0.00,weatherlink.com 1.10,2013-01-07 02:56:00,
2013-01-06 20:11:00,25.3,12.0,30.06,SE,137,0.0,-999.0,57,-99.99,,,0.00,weatherlink.com 1.10,2013-01-07 03:11:00,
2013-01-06 20:26:00,25.4,12.0,30.06,SE,138,0.0,-999.0,57,-99.99,,,0.00,weatherlink.com 1.10,2013-01-07 03:26:00,
2013-01-06 20:41:00,24.7,12.0,30.06,SE,137,0.0,-999.0,60,-99.99,,,0.00,weatherlink.com 1.10,2013-01-07 03:41:00,
2013-01-06 20:56:00,24.4,12.0,30.05,SE,136,0.0,-999.0,60,-99.99,,,0.00,weatherlink.com 1.10,2013-01-07 03:56:00,
2013-01-06 21:11:00,23.7,12.0,30.06,SE,136,1.0,-999.0,62,-99.99,,,0.00,weatherlink.com 1.10,2013-01-07 04:11:00,
2013-01-06 21:26:00,23.9,13.0,30.07,NNE,25,1.0,-999.0,63,-99.99,,,0.00,weatherlink.com 1.10,2013-01-07 04:26:00,
2013-01-06 21:41:00,23.5,13.0,30.05,NNE,30,0.0,-999.0,64,-99.99,,,0.00,weatherlink.com 1.10,2013-01-07 04:41:00,
2013-01-06 21:56:00,23.8,13.0,30.05,NNE,16,0.0,-999.0,64,-99.99,,,0.00,weatherlink.com 1.10,2013-01-07 04:56:00,
2013-01-06 22:11:00,23.4,12.0,30.05,NNE,16,0.0,-999.0,63,-99.99,,,0.00,weatherlink.com 1.10,2013-01-07 05:11:00,
2013-01-06 22:26:00,23.6,12.0,30.05,NE,40,0.0,-999.0,62,-99.99,,,0.00,weatherlink.com 1.10,2013-01-07 05:26:00,
2013-01-06 22:41:00,23.4,12.0,30.04,NNE,30,0.0,-999.0,63,-99.99,,,0.00,weatherlink.com 1.10,2013-01-07 05:41:00,
2013-01-06 22:56:00,24.0,12.0,30.04,NE,36,0.0,-999.0,60,-99.99,,,0.00,weatherlink.com 1.10,2013-01-07 05:56:00,
2013-01-06 23:11:00,24.7,12.0,30.02,NNE,16,0.0,-999.0,59,-99.99,,,0.00,weatherlink.com 1.10,2013-01-07 06:11:00,
2013-01-06 23:26:00,25.5,13.0,30.02,SSE,150,0.0,-999.0,59,-99.99,,,0.00,weatherlink.com 1.10,2013-01-07 06:26:00,
2013-01-06 23:41:00,26.5,13.0,30.02,NNE,30,0.0,-999.0,56,-99.99,,,0.00,weatherlink.com 1.10,2013-01-07 06:41:00,
2013-01-06 23:56:00,26.4,13.0,30.02,NNE,31,0.0,-999.0,57,-99.99,,,0.00,weatherlink.com 1.10,2013-01-07 06:56:00,